Tracking 33176 objects as of 13-Feb-2026
HD Live streaming from Space Station
objects crossing your sky now

STARLINK-1144

Track STARLINK-1144 now!
10-day predictions
STARLINK-1144 is classified as:


NORAD ID: 44933
Int'l Code: 2020-001V
Perigee: 202.7 km
Apogee: 207.1 km
Inclination: 53.0 °
Period: 88.4 minutes
Semi major axis: 6575 km
RCS: Unknown
Launch date: January 7, 2020
Source: United States (US)
Launch site: AIR FORCE EASTERN TEST RANGE (AFETR)
Your satellite tracking list
Your tracking list is empty




NASA's NSSDC Master Catalog

Two Line Element Set (TLE):
1 44933U 20001V   26043.96149081  .03247942  12020-4  83135-3 0  9992
2 44933  53.0248 336.3024 0003354 193.4053 166.6899 16.28058665339117
Source of the keplerian elements: AFSPC